Погода в Осановце

Россия / Ивановская область     56°33′33″N   39°59′05″E
темп.,
°C
ветер,
м/с
пор.,
м/с
влажн.,
%
обл.,
%
осадки,
мм/ч
давл.,
гПа
погр.,
м
9 марта, вт
вт900:00−15сз479776 0.0 1008131
03:00−17сз469884 0.1 1011113
06:00−18ссз4898100 0.1 1013151
09:00−19ссз4797100 0.1 1014243
12:00−15ссз469296 0.0 1015386
15:00−14ссз578997 0.0 1016588
18:00−17ссз4994100 0.1 1018223
21:00−21ссз489897 0.1 1020180
10 марта, ср
ср1000:00−23ссз479990 0.0 1022133
03:00−26ссз369989 0.1 102393
06:00−28ссз469951 0.0 1025116
09:00−26ссз479643 0.0 1026229
12:00−21ссз469221 0.0 1027366
15:00−18ссз468826 0.0 1028445
18:00−21ссз339311 0.0 102826
21:00−22сз34946 0.0 102927
11 марта, чт
чт1100:00−23сз34920 0.0 103038
03:00−23зсз34940 0.0 103154
06:00−24зсз34980 0.0 103158
09:00−20зсз46970 0.0 1032171
12:00−15зсз34909 0.0 1032290
15:00−12з358811 0.0 1031366
18:00−15з23910 0.0 103023
21:00−17зюз33920 0.0 103121
12 марта, пт
пт1200:00−18зюз34930 0.0 103138
03:00−19юз45900 0.0 103166
06:00−21юз48830 0.0 1031117
09:00−18ююз511780 0.0 1030261
12:00−13ю59790 0.0 1029415
15:00−9ююз611760 0.0 1027651
18:00−12ю513810 0.0 1026357
21:00−14ю716850 0.0 1026390
13 марта, сб
сб1300:00−14ю616855 0.0 1025414
03:00−13ю8178152 0.0 1023454
06:00−12ю81582100 0.0 1022508
09:00−11ю81685100 0.0 1020661
12:00−7ю91489100 0.1 1019916
15:00−6ю91389100 0.4 1018915
18:00−6ю71392100 0.3 1016662
21:00−5ююз71491100 0.6 1016472